User: anonymous   Login
Location: Asni�res
(49.1337°N, 2.3555°E)
Time: 03:43:48
(UTC+00:00)
Language:

Cosmos 1953 - Orbit

View from above orbital plane
View from above orbital plane
View from above satellite
View from above satellite

Ground track
Ground track

The orbit data is extracted from the following two-line orbital elements,

1 19210U 88050A   22026.57564168  .00000842  00000-0  54810-4 0  9994
2 19210  82.5164 198.7183 0011834 267.0684  92.9190 15.06632121810194
Epoch (UTC): 26 January 2022 13:48:55
Eccentricity: 0.0011834
inclination: 82.5164°
perigee height: 538 km
apogee height: 555 km
right ascension of ascending node: 198.7183°
argument of perigee: 267.0684°
revolutions per day: 15.06632121
mean anomaly at epoch: 92.9190°
orbit number at epoch: 81019

The dashed part of the orbit path shows where the satellite is in the earth's shadow,  

DLR